Location: Sungai Anya
(2.6167°N, 114.0500°E)
Time: 19:26:35
(UTC+00:00)

Cosmos 44 - Pass Details

Date: 19 October 2021
Orbit: 580 x 782 km, 65.1° (Epoch: 07 December)

Event Time Altitude Azimuth Distance (km) Brightness Sun altitude
Rises 10:24:18 0° 189° (S) 3,138 6.9 -4.3°
Reaches altitude 10° 10:26:44 10° 183° (S) 2,244 6.1 -4.9°
Maximum altitude 10:31:39 45° 111° (ESE) 1,034 3.8 -6.1°
Drops below altitude 10° 10:36:43 10° 39° (NE) 2,315 5.5 -7.3°
Sets 10:39:14 0° 33° (NNE) 3,249 6.3 -8.0°
